Location: LDNL
(36.4545°S, 141.6685°E)
Time: 11:10:11
(UTC+10:00)

Explorer 7 - Pass Details

Date: 13 August 2022
Orbit: 482 x 668 km, 50.3° (Epoch: 26 September)

Event Time Altitude Azimuth Distance (km) Brightness Sun altitude
Rises 02:01:39 0° 240° (WSW) 2,814 - -61.5°
Reaches altitude 10° 02:04:10 10° 249° (WSW) 1,873 - -61.1°
Maximum altitude 02:07:56 31° 312° (NW) 968 - -60.6°
Drops below altitude 10° 02:11:29 10° 15° (NNE) 1,756 - -60.0°
Sets 02:13:47 0° 25° (NNE) 2,608 - -59.7°
